Aviation Digital Data Service (ADDS)

Output produced by METARs form (1359 UTC 26 May 2018)
found at http://www.aviationweather.gov/adds/metars/
 
ORBD 261355Z 24005KT 9999 FEW100 39/07 A2972 RMK WND DATA ALSTG ESTMD
TAF ORBD 261045Z 2611/2717 32012G18KT 9000 HZ SCT080 SCT300 QNH2970INS WND 240V360 WND VRB06KT AFT 2615 
     BECMG 2700/2701 05009KT 9000 HZ SCT280 QNH2970INS WND 340V090 
     TEMPO 2706/2713 04012G18KT 8000 HZ FEW080 SCT250 WND 360V080 TX42/2712Z TN25/2703Z
       
ORBI 261400Z VRB04KT 9999 SCT035 39/09 Q1006 NOSIG
TAF ORBI 261000Z 2612/2712 30006KT 8000 NSC
       
ORER 261300Z 36009KT 8000 SCT025 SCT080 35/08 Q1011 NOSIG
TAF ORER 261000Z 2612/2712 22005KT 8000 NSC
       
ORMM 261300Z 30010KT CAVOK 42/06 Q1005 NOSIG
TAF ORMM 261000Z 2612/2712 32010KT 8000 NSC
       
ORNI 261300Z 35006KT 9999 FEW030 40/04 Q1006 NOSIG
TAF ORNI 261000Z 2612/2712 06005KT 8000 NSC
       
ORSU 261400Z 30008KT 9999 SCT045 32/08 Q1014
TAF ORSU 261100Z 2612/2712 29012KT 9999 SCT045 
     BECMG 2618/2620 33008KT CAVOK 
     BECMG 2706/2708 28008KT 9999 SCT045
       
ORBD 261355Z 24005KT 9999 FEW100 39/07 A2972 RMK WND DATA ALSTG ESTMD
TAF ORBD 261045Z 2611/2717 32012G18KT 9000 HZ SCT080 SCT300 QNH2970INS WND 240V360 WND VRB06KT AFT 2615 
     BECMG 2700/2701 05009KT 9000 HZ SCT280 QNH2970INS WND 340V090 
     TEMPO 2706/2713 04012G18KT 8000 HZ FEW080 SCT250 WND 360V080 TX42/2712Z TN25/2703Z
       
ORBI 261400Z VRB04KT 9999 SCT035 39/09 Q1006 NOSIG
TAF ORBI 261000Z 2612/2712 30006KT 8000 NSC
       
ORER 261300Z 36009KT 8000 SCT025 SCT080 35/08 Q1011 NOSIG
TAF ORER 261000Z 2612/2712 22005KT 8000 NSC
       
ORMM 261300Z 30010KT CAVOK 42/06 Q1005 NOSIG
TAF ORMM 261000Z 2612/2712 32010KT 8000 NSC
       
ORNI 261300Z 35006KT 9999 FEW030 40/04 Q1006 NOSIG
TAF ORNI 261000Z 2612/2712 06005KT 8000 NSC
       
ORSU 261400Z 30008KT 9999 SCT045 32/08 Q1014
TAF ORSU 261100Z 2612/2712 29012KT 9999 SCT045 
     BECMG 2618/2620 33008KT CAVOK 
     BECMG 2706/2708 28008KT 9999 SCT045
       
ORBD 261355Z 24005KT 9999 FEW100 39/07 A2972 RMK WND DATA ALSTG ESTMD
TAF ORBD 261045Z 2611/2717 32012G18KT 9000 HZ SCT080 SCT300 QNH2970INS WND 240V360 WND VRB06KT AFT 2615 
     BECMG 2700/2701 05009KT 9000 HZ SCT280 QNH2970INS WND 340V090 
     TEMPO 2706/2713 04012G18KT 8000 HZ FEW080 SCT250 WND 360V080 TX42/2712Z TN25/2703Z
       
ORBI 261400Z VRB04KT 9999 SCT035 39/09 Q1006 NOSIG
TAF ORBI 261000Z 2612/2712 30006KT 8000 NSC
       
ORER 261300Z 36009KT 8000 SCT025 SCT080 35/08 Q1011 NOSIG
TAF ORER 261000Z 2612/2712 22005KT 8000 NSC
       
ORMM 261300Z 30010KT CAVOK 42/06 Q1005 NOSIG
TAF ORMM 261000Z 2612/2712 32010KT 8000 NSC
       
ORNI 261300Z 35006KT 9999 FEW030 40/04 Q1006 NOSIG
TAF ORNI 261000Z 2612/2712 06005KT 8000 NSC
       
ORSU 261400Z 30008KT 9999 SCT045 32/08 Q1014
TAF ORSU 261100Z 2612/2712 29012KT 9999 SCT045 
     BECMG 2618/2620 33008KT CAVOK 
     BECMG 2706/2708 28008KT 9999 SCT045
       
ORBD 261355Z 24005KT 9999 FEW100 39/07 A2972 RMK WND DATA ALSTG ESTMD
TAF ORBD 261045Z 2611/2717 32012G18KT 9000 HZ SCT080 SCT300 QNH2970INS WND 240V360 WND VRB06KT AFT 2615 
     BECMG 2700/2701 05009KT 9000 HZ SCT280 QNH2970INS WND 340V090 
     TEMPO 2706/2713 04012G18KT 8000 HZ FEW080 SCT250 WND 360V080 TX42/2712Z TN25/2703Z
       
ORBI 261400Z VRB04KT 9999 SCT035 39/09 Q1006 NOSIG
TAF ORBI 261000Z 2612/2712 30006KT 8000 NSC
       
ORER 261300Z 36009KT 8000 SCT025 SCT080 35/08 Q1011 NOSIG
TAF ORER 261000Z 2612/2712 22005KT 8000 NSC
       
ORMM 261300Z 30010KT CAVOK 42/06 Q1005 NOSIG
TAF ORMM 261000Z 2612/2712 32010KT 8000 NSC
       
ORNI 261300Z 35006KT 9999 FEW030 40/04 Q1006 NOSIG
TAF ORNI 261000Z 2612/2712 06005KT 8000 NSC
       
ORSU 261400Z 30008KT 9999 SCT045 32/08 Q1014
TAF ORSU 261100Z 2612/2712 29012KT 9999 SCT045 
     BECMG 2618/2620 33008KT CAVOK 
     BECMG 2706/2708 28008KT 9999 SCT045
       
ORBD 261355Z 24005KT 9999 FEW100 39/07 A2972 RMK WND DATA ALSTG ESTMD
TAF ORBD 261045Z 2611/2717 32012G18KT 9000 HZ SCT080 SCT300 QNH2970INS WND 240V360 WND VRB06KT AFT 2615 
     BECMG 2700/2701 05009KT 9000 HZ SCT280 QNH2970INS WND 340V090 
     TEMPO 2706/2713 04012G18KT 8000 HZ FEW080 SCT250 WND 360V080 TX42/2712Z TN25/2703Z
       
ORBI 261400Z VRB04KT 9999 SCT035 39/09 Q1006 NOSIG
TAF ORBI 261000Z 2612/2712 30006KT 8000 NSC
       
ORER 261300Z 36009KT 8000 SCT025 SCT080 35/08 Q1011 NOSIG
TAF ORER 261000Z 2612/2712 22005KT 8000 NSC
       
ORMM 261300Z 30010KT CAVOK 42/06 Q1005 NOSIG
TAF ORMM 261000Z 2612/2712 32010KT 8000 NSC
       
ORNI 261300Z 35006KT 9999 FEW030 40/04 Q1006 NOSIG
TAF ORNI 261000Z 2612/2712 06005KT 8000 NSC
       
ORSU 261400Z 30008KT 9999 SCT045 32/08 Q1014
TAF ORSU 261100Z 2612/2712 29012KT 9999 SCT045 
     BECMG 2618/2620 33008KT CAVOK 
     BECMG 2706/2708 28008KT 9999 SCT045
       
ORMM 261300Z 30010KT CAVOK 42/06 Q1005 NOSIG
TAF ORMM 261000Z 2612/2712 32010KT 8000 NSC
       
ORBD 261355Z 24005KT 9999 FEW100 39/07 A2972 RMK WND DATA ALSTG ESTMD
TAF ORBD 261045Z 2611/2717 32012G18KT 9000 HZ SCT080 SCT300 QNH2970INS WND 240V360 WND VRB06KT AFT 2615 
     BECMG 2700/2701 05009KT 9000 HZ SCT280 QNH2970INS WND 340V090 
     TEMPO 2706/2713 04012G18KT 8000 HZ FEW080 SCT250 WND 360V080 TX42/2712Z TN25/2703Z
       
ORBI 261400Z VRB04KT 9999 SCT035 39/09 Q1006 NOSIG
TAF ORBI 261000Z 2612/2712 30006KT 8000 NSC
       
ORER 261300Z 36009KT 8000 SCT025 SCT080 35/08 Q1011 NOSIG
TAF ORER 261000Z 2612/2712 22005KT 8000 NSC
       
ORMM 261300Z 30010KT CAVOK 42/06 Q1005 NOSIG
TAF ORMM 261000Z 2612/2712 32010KT 8000 NSC
       
ORNI 261300Z 35006KT 9999 FEW030 40/04 Q1006 NOSIG
TAF ORNI 261000Z 2612/2712 06005KT 8000 NSC
       
ORSU 261400Z 30008KT 9999 SCT045 32/08 Q1014
TAF ORSU 261100Z 2612/2712 29012KT 9999 SCT045 
     BECMG 2618/2620 33008KT CAVOK 
     BECMG 2706/2708 28008KT 9999 SCT045
       
ORBD 261355Z 24005KT 9999 FEW100 39/07 A2972 RMK WND DATA ALSTG ESTMD
TAF ORBD 261045Z 2611/2717 32012G18KT 9000 HZ SCT080 SCT300 QNH2970INS WND 240V360 WND VRB06KT AFT 2615 
     BECMG 2700/2701 05009KT 9000 HZ SCT280 QNH2970INS WND 340V090 
     TEMPO 2706/2713 04012G18KT 8000 HZ FEW080 SCT250 WND 360V080 TX42/2712Z TN25/2703Z
       
ORBI 261400Z VRB04KT 9999 SCT035 39/09 Q1006 NOSIG
TAF ORBI 261000Z 2612/2712 30006KT 8000 NSC
       
ORER 261300Z 36009KT 8000 SCT025 SCT080 35/08 Q1011 NOSIG
TAF ORER 261000Z 2612/2712 22005KT 8000 NSC
       
ORMM 261300Z 30010KT CAVOK 42/06 Q1005 NOSIG
TAF ORMM 261000Z 2612/2712 32010KT 8000 NSC
       
ORNI 261300Z 35006KT 9999 FEW030 40/04 Q1006 NOSIG
TAF ORNI 261000Z 2612/2712 06005KT 8000 NSC
       
ORSU 261400Z 30008KT 9999 SCT045 32/08 Q1014
TAF ORSU 261100Z 2612/2712 29012KT 9999 SCT045 
     BECMG 2618/2620 33008KT CAVOK 
     BECMG 2706/2708 28008KT 9999 SCT045
       
ORBD 261355Z 24005KT 9999 FEW100 39/07 A2972 RMK WND DATA ALSTG ESTMD
TAF ORBD 261045Z 2611/2717 32012G18KT 9000 HZ SCT080 SCT300 QNH2970INS WND 240V360 WND VRB06KT AFT 2615 
     BECMG 2700/2701 05009KT 9000 HZ SCT280 QNH2970INS WND 340V090 
     TEMPO 2706/2713 04012G18KT 8000 HZ FEW080 SCT250 WND 360V080 TX42/2712Z TN25/2703Z
       
ORBI 261400Z VRB04KT 9999 SCT035 39/09 Q1006 NOSIG
TAF ORBI 261000Z 2612/2712 30006KT 8000 NSC
       
ORER 261300Z 36009KT 8000 SCT025 SCT080 35/08 Q1011 NOSIG
TAF ORER 261000Z 2612/2712 22005KT 8000 NSC
       
ORMM 261300Z 30010KT CAVOK 42/06 Q1005 NOSIG
TAF ORMM 261000Z 2612/2712 32010KT 8000 NSC
       
ORNI 261300Z 35006KT 9999 FEW030 40/04 Q1006 NOSIG
TAF ORNI 261000Z 2612/2712 06005KT 8000 NSC
       
ORSU 261400Z 30008KT 9999 SCT045 32/08 Q1014
TAF ORSU 261100Z 2612/2712 29012KT 9999 SCT045 
     BECMG 2618/2620 33008KT CAVOK 
     BECMG 2706/2708 28008KT 9999 SCT045
       
ORBD 261355Z 24005KT 9999 FEW100 39/07 A2972 RMK WND DATA ALSTG ESTMD
TAF ORBD 261045Z 2611/2717 32012G18KT 9000 HZ SCT080 SCT300 QNH2970INS WND 240V360 WND VRB06KT AFT 2615 
     BECMG 2700/2701 05009KT 9000 HZ SCT280 QNH2970INS WND 340V090 
     TEMPO 2706/2713 04012G18KT 8000 HZ FEW080 SCT250 WND 360V080 TX42/2712Z TN25/2703Z
       
ORBI 261400Z VRB04KT 9999 SCT035 39/09 Q1006 NOSIG
TAF ORBI 261000Z 2612/2712 30006KT 8000 NSC
       
ORER 261300Z 36009KT 8000 SCT025 SCT080 35/08 Q1011 NOSIG
TAF ORER 261000Z 2612/2712 22005KT 8000 NSC
       
ORMM 261300Z 30010KT CAVOK 42/06 Q1005 NOSIG
TAF ORMM 261000Z 2612/2712 32010KT 8000 NSC
       
ORNI 261300Z 35006KT 9999 FEW030 40/04 Q1006 NOSIG
TAF ORNI 261000Z 2612/2712 06005KT 8000 NSC
       
ORSU 261400Z 30008KT 9999 SCT045 32/08 Q1014
TAF ORSU 261100Z 2612/2712 29012KT 9999 SCT045 
     BECMG 2618/2620 33008KT CAVOK 
     BECMG 2706/2708 28008KT 9999 SCT045